| time (UTC) | temp C | wind direction | speed KPH | gust KPH | rain 1hr cm | rain 24hr cm | rain mn cm | humidity % | barometer mb |
| 20260507044400 | 18 | 249 | 1.6 | 6.4 | 0.00 | 0.00 | 0.00 | 19 | 1018.3 |
| 20260507043853 | 18 | 274 | 1.6 | 6.4 | 0.00 | 0.00 | 0.00 | 19 | 1018.3 |
| 20260507043347 | 18 | 266 | 1.6 | 6.4 | 0.00 | 0.00 | 0.00 | 19 | 1018.2 |
| 20260507042842 | 19 | 304 | 1.6 | 6.4 | 0.00 | 0.00 | 0.00 | 19 | 1018.1 |
| 20260507041829 | 19 | 290 | 1.6 | 12.9 | 0.00 | 0.00 | 0.00 | 18 | 1018.1 |
| 20260507041324 | 19 | 313 | 1.6 | 12.9 | 0.00 | 0.00 | 0.00 | 18 | 1018.0 |
| 20260507040818 | 19 | 315 | 1.6 | 11.3 | 0.00 | 0.00 | 0.00 | 18 | 1018.0 |
| 20260507040312 | 19 | 282 | 1.6 | 9.7 | 0.00 | 0.00 | 0.00 | 18 | 1018.0 |
| 20260507035805 | 19 | 313 | 1.6 | 9.7 | 0.00 | 0.00 | 0.00 | 18 | 1017.8 |
| 20260507035305 | 19 | 286 | 1.6 | 6.4 | 0.00 | 0.00 | 0.00 | 18 | 1017.8 |
| 20260507034754 | 19 | 269 | 1.6 | 9.7 | 0.00 | 0.00 | 0.00 | 18 | 1017.8 |
| 20260507034247 | 19 | 283 | 1.6 | 9.7 | 0.00 | 0.00 | 0.00 | 18 | 1017.7 |
| 20260507033744 | 19 | 275 | 1.6 | 9.7 | 0.00 | 0.00 | 0.00 | 18 | 1017.6 |
| 20260507032224 | 19 | 299 | 3.2 | 12.9 | 0.00 | 0.00 | 0.00 | 17 | 1017.4 |
| 20260507031720 | 20 | 319 | 6.4 | 14.5 | 0.00 | 0.00 | 0.00 | 17 | 1017.4 |
| 20260507031213 | 20 | 277 | 8.0 | 20.9 | 0.00 | 0.00 | 0.00 | 17 | 1017.3 |
| 20260507030705 | 20 | 263 | 8.0 | 20.9 | 0.00 | 0.00 | 0.00 | 17 | 1017.3 |
| 20260507030159 | 20 | 262 | 8.0 | 19.3 | 0.00 | 0.00 | 0.00 | 17 | 1017.2 |
| 20260507025655 | 20 | 283 | 6.4 | 19.3 | 0.00 | 0.00 | 0.00 | 17 | 1017.0 |
| 20260507025148 | 20 | 283 | 6.4 | 14.5 | 0.00 | 0.00 | 0.00 | 17 | 1017.0 |
| 20260507024649 | 20 | 288 | 6.4 | 14.5 | 0.00 | 0.00 | 0.00 | 17 | 1016.9 |
| 20260507024148 | 20 | 288 | 8.0 | 22.5 | 0.00 | 0.00 | 0.00 | 17 | 1016.9 |
| 20260507023650 | 20 | 277 | 8.0 | 22.5 | 0.00 | 0.00 | 0.00 | 16 | 1016.9 |
| 20260507022647 | 20 | 317 | 9.7 | 20.9 | 0.00 | 0.00 | 0.00 | 16 | 1016.8 |
| 20260507022148 | 20 | 289 | 9.7 | 24.1 | 0.00 | 0.00 | 0.00 | 16 | 1016.8 |
| 20260507021647 | 20 | 260 | 9.7 | 24.1 | 0.00 | 0.00 | 0.00 | 16 | 1016.8 |
| 20260507021147 | 20 | 307 | 8.0 | 16.1 | 0.00 | 0.00 | 0.00 | 16 | 1016.8 |
| 20260507020145 | 21 | 285 | 9.7 | 22.5 | 0.00 | 0.00 | 0.00 | 16 | 1016.7 |
| 20260507015646 | 21 | 340 | 8.0 | 22.5 | 0.00 | 0.00 | 0.00 | 15 | 1016.6 |
| 20260507014644 | 21 | 293 | 6.4 | 12.9 | 0.00 | 0.00 | 0.00 | 14 | 1016.6 |
| 20260507014144 | 22 | 303 | 6.4 | 16.1 | 0.00 | 0.00 | 0.00 | 14 | 1016.6 |
| 20260507013643 | 22 | 283 | 6.4 | 16.1 | 0.00 | 0.00 | 0.00 | 13 | 1016.5 |
| 20260507013152 | 22 | 310 | 8.0 | 16.1 | 0.00 | 0.00 | 0.00 | 13 | 1016.6 |
| 20260507012653 | 22 | 282 | 8.0 | 17.7 | 0.00 | 0.00 | 0.00 | 13 | 1016.6 |
| 20260507011641 | 23 | 30 | 8.0 | 17.7 | 0.00 | 0.00 | 0.00 | 13 | 1016.6 |
| 20260507011128 | 23 | 323 | 8.0 | 17.7 | 0.00 | 0.00 | 0.00 | 12 | 1016.5 |
| 20260507010621 | 23 | 295 | 4.8 | 17.7 | 0.00 | 0.00 | 0.00 | 12 | 1016.5 |
| 20260507010119 | 23 | 249 | 6.4 | 16.1 | 0.00 | 0.00 | 0.00 | 11 | 1016.5 |
| 20260507005621 | 23 | 339 | 8.0 | 16.1 | 0.00 | 0.00 | 0.00 | 12 | 1016.6 |
| 20260507005126 | 23 | 314 | 6.4 | 16.1 | 0.00 | 0.00 | 0.00 | 11 | 1016.6 |
| 20260507003616 | 23 | 286 | 8.0 | 14.5 | 0.00 | 0.00 | 0.00 | 10 | 1016.6 |
| 20260507003116 | 23 | 329 | 6.4 | 14.5 | 0.00 | 0.00 | 0.00 | 10 | 1016.5 |
| 20260507002616 | 23 | 314 | 6.4 | 14.5 | 0.00 | 0.00 | 0.00 | 10 | 1016.5 |
| 20260507002112 | 23 | 309 | 6.4 | 14.5 | 0.00 | 0.00 | 0.00 | 10 | 1016.4 |
| 20260507001616 | 23 | 247 | 8.0 | 17.7 | 0.00 | 0.00 | 0.00 | 10 | 1016.4 |
| 20260507001114 | 23 | 281 | 6.4 | 17.7 | 0.00 | 0.00 | 0.00 | 10 | 1016.2 |
| 20260507000610 | 23 | 296 | 6.4 | 14.5 | 0.00 | 0.00 | 0.00 | 10 | 1016.4 |
| 20260507000112 | 23 | 35 | 8.0 | 19.3 | 0.00 | 0.00 | 0.00 | 10 | 1016.2 |
| 20260506235111 | 23 | 315 | 8.0 | 22.5 | 0.00 | 0.00 | 0.00 | 11 | 1016.1 |
| 20260506234616 | 23 | 29 | 8.0 | 22.5 | 0.00 | 0.00 | 0.00 | 10 | 1016.0 |
| 20260506233612 | 24 | 261 | 4.8 | 14.5 | 0.00 | 0.00 | 0.00 | 11 | 1016.2 |
| 20260506233110 | 23 | 280 | 6.4 | 19.3 | 0.00 | 0.00 | 0.00 | 11 | 1016.1 |
| 20260506232610 | 23 | 146 | 8.0 | 19.3 | 0.00 | 0.00 | 0.00 | 12 | 1016.2 |
| 20260506232110 | 23 | 340 | 6.4 | 20.9 | 0.00 | 0.00 | 0.00 | 12 | 1016.2 |
| 20260506231610 | 23 | 22 | 8.0 | 20.9 | 0.00 | 0.00 | 0.00 | 12 | 1016.4 |
| 20260506231112 | 23 | 308 | 6.4 | 16.1 | 0.00 | 0.00 | 0.00 | 12 | 1016.5 |
| 20260506230606 | 23 | 355 | 8.0 | 16.1 | 0.00 | 0.00 | 0.00 | 12 | 1016.5 |
| 20260506230106 | 23 | 352 | 9.7 | 24.1 | 0.00 | 0.00 | 0.00 | 13 | 1016.5 |
| 20260506225606 | 23 | 35 | 9.7 | 24.1 | 0.00 | 0.00 | 0.00 | 13 | 1016.6 |
| 20260506225109 | 23 | 345 | 8.0 | 17.7 | 0.00 | 0.00 | 0.00 | 13 | 1016.6 |
| 20260506224611 | 23 | 311 | 8.0 | 16.1 | 0.00 | 0.00 | 0.00 | 13 | 1016.7 |
| 20260506224110 | 23 | 252 | 4.8 | 17.7 | 0.00 | 0.00 | 0.00 | 13 | 1016.6 |
| 20260506223609 | 23 | 323 | 6.4 | 20.9 | 0.00 | 0.00 | 0.00 | 13 | 1016.7 |
| 20260506222610 | 23 | 308 | 6.4 | 17.7 | 0.00 | 0.00 | 0.00 | 13 | 1016.8 |
| 20260506222108 | 23 | 37 | 4.8 | 17.7 | 0.00 | 0.00 | 0.00 | 13 | 1016.8 |
| 20260506221606 | 22 | 89 | 6.4 | 16.1 | 0.00 | 0.00 | 0.00 | 13 | 1016.8 |
| 20260506221108 | 23 | 32 | 6.4 | 17.7 | 0.00 | 0.00 | 0.00 | 14 | 1016.9 |
| 20260506220607 | 22 | 295 | 8.0 | 17.7 | 0.00 | 0.00 | 0.00 | 14 | 1017.0 |
| 20260506220107 | 22 | 314 | 8.0 | 25.7 | 0.00 | 0.00 | 0.00 | 15 | 1017.2 |
| 20260506215606 | 22 | 265 | 9.7 | 25.7 | 0.00 | 0.00 | 0.00 | 14 | 1017.3 |
| 20260506215110 | 22 | 291 | 9.7 | 24.1 | 0.00 | 0.00 | 0.00 | 15 | 1017.3 |
| 20260506214603 | 22 | 27 | 9.7 | 20.9 | 0.00 | 0.00 | 0.00 | 14 | 1017.4 |
| 20260506214102 | 22 | 300 | 9.7 | 22.5 | 0.00 | 0.00 | 0.00 | 15 | 1017.4 |
| 20260506213600 | 22 | 311 | 8.0 | 22.5 | 0.00 | 0.00 | 0.00 | 15 | 1017.4 |
| 20260506212601 | 22 | 30 | 8.0 | 19.3 | 0.00 | 0.00 | 0.00 | 14 | 1017.5 |
| 20260506212100 | 22 | 313 | 9.7 | 19.3 | 0.00 | 0.00 | 0.00 | 14 | 1017.5 |
| 20260506211559 | 22 | 316 | 6.4 | 19.3 | 0.00 | 0.00 | 0.00 | 14 | 1017.6 |
| 20260506211100 | 22 | 304 | 8.0 | 20.9 | 0.00 | 0.00 | 0.00 | 16 | 1017.5 |
| 20260506210600 | 22 | 215 | 8.0 | 20.9 | 0.00 | 0.00 | 0.00 | 15 | 1017.5 |
| 20260506210101 | 22 | 242 | 6.4 | 16.1 | 0.00 | 0.00 | 0.00 | 15 | 1017.5 |
| 20260506205559 | 21 | 292 | 6.4 | 14.5 | 0.00 | 0.00 | 0.00 | 15 | 1017.6 |
| 20260506205059 | 21 | 252 | 4.8 | 14.5 | 0.00 | 0.00 | 0.00 | 16 | 1017.6 |
| 20260506204050 | 22 | 354 | 4.8 | 14.5 | 0.00 | 0.00 | 0.00 | 15 | 1017.7 |
| 20260506203545 | 21 | 39 | 6.4 | 16.1 | 0.00 | 0.00 | 0.00 | 16 | 1017.7 |
| 20260506203044 | 22 | 295 | 6.4 | 16.1 | 0.00 | 0.00 | 0.00 | 15 | 1017.8 |
| 20260506202041 | 21 | 74 | 8.0 | 16.1 | 0.00 | 0.00 | 0.00 | 16 | 1017.7 |
| 20260506201539 | 21 | 317 | 6.4 | 19.3 | 0.00 | 0.00 | 0.00 | 17 | 1017.7 |
| 20260506201039 | 21 | 14 | 4.8 | 19.3 | 0.00 | 0.00 | 0.00 | 16 | 1017.8 |
| 20260506200545 | 21 | 36 | 4.8 | 20.9 | 0.00 | 0.00 | 0.00 | 16 | 1018.0 |
| 20260506195535 | 21 | 301 | 6.4 | 17.7 | 0.00 | 0.00 | 0.00 | 17 | 1018.1 |
| 20260506195036 | 21 | 302 | 6.4 | 22.5 | 0.00 | 0.00 | 0.00 | 17 | 1018.1 |
| 20260506194034 | 20 | 324 | 8.0 | 22.5 | 0.00 | 0.00 | 0.00 | 18 | 1018.1 |
| 20260506193534 | 20 | 252 | 6.4 | 16.1 | 0.00 | 0.00 | 0.00 | 18 | 1018.2 |
| 20260506193034 | 21 | 217 | 4.8 | 16.1 | 0.00 | 0.00 | 0.00 | 17 | 1018.2 |
| 20260506192033 | 20 | 309 | 6.4 | 20.9 | 0.00 | 0.00 | 0.00 | 19 | 1018.2 |
| 20260506191035 | 20 | 326 | 6.4 | 14.5 | 0.00 | 0.00 | 0.00 | 18 | 1018.3 |
| 20260506190531 | 20 | 333 | 4.8 | 12.9 | 0.00 | 0.00 | 0.00 | 18 | 1018.3 |
| 20260506185530 | 20 | 286 | 8.0 | 19.3 | 0.00 | 0.00 | 0.00 | 19 | 1018.4 |
| 20260506185031 | 20 | 333 | 6.4 | 16.1 | 0.00 | 0.00 | 0.00 | 18 | 1018.3 |
| 20260506184528 | 20 | 26 | 6.4 | 16.1 | 0.00 | 0.00 | 0.00 | 19 | 1018.4 |
| 20260506184029 | 19 | 307 | 8.0 | 19.3 | 0.00 | 0.00 | 0.00 | 19 | 1018.5 |
| 20260506183025 | 20 | 317 | 4.8 | 14.5 | 0.00 | 0.00 | 0.00 | 19 | 1018.4 |
| 20260506182024 | 19 | 310 | 6.4 | 16.1 | 0.00 | 0.00 | 0.00 | 20 | 1018.5 |
| 20260506181524 | 19 | 268 | 3.2 | 16.1 | 0.00 | 0.00 | 0.00 | 19 | 1018.5 |
| 20260506181022 | 19 | 193 | 4.8 | 16.1 | 0.00 | 0.00 | 0.00 | 20 | 1018.5 |
| 20260506180521 | 18 | 143 | 6.4 | 16.1 | 0.00 | 0.00 | 0.00 | 20 | 1018.6 |
| 20260506180021 | 18 | 311 | 6.4 | 14.5 | 0.00 | 0.00 | 0.00 | 20 | 1018.5 |
| 20260506175524 | 18 | 293 | 4.8 | 12.9 | 0.00 | 0.00 | 0.00 | 20 | 1018.5 |
| 20260506174526 | 18 | 287 | 4.8 | 14.5 | 0.00 | 0.00 | 0.00 | 21 | 1018.5 |
| 20260506174021 | 18 | 289 | 3.2 | 14.5 | 0.00 | 0.00 | 0.00 | 21 | 1018.6 |
| 20260506173516 | 18 | 18 | 4.8 | 14.5 | 0.00 | 0.00 | 0.00 | 21 | 1018.5 |
| 20260506173010 | 18 | 192 | 6.4 | 14.5 | 0.00 | 0.00 | 0.00 | 21 | 1018.6 |
| 20260506172505 | 18 | 229 | 6.4 | 19.3 | 0.00 | 0.00 | 0.00 | 21 | 1018.5 |
| 20260506171955 | 18 | 273 | 4.8 | 24.1 | 0.00 | 0.00 | 0.00 | 20 | 1018.5 |
| 20260506171453 | 18 | 216 | 4.8 | 24.1 | 0.00 | 0.00 | 0.00 | 21 | 1018.4 |
| 20260506170945 | 18 | 324 | 4.8 | 12.9 | 0.00 | 0.00 | 0.00 | 21 | 1018.4 |
| 20260506170440 | 18 | 231 | 3.2 | 12.9 | 0.00 | 0.00 | 0.00 | 22 | 1018.3 |
| 20260506165935 | 18 | 284 | 3.2 | 12.9 | 0.00 | 0.00 | 0.00 | 21 | 1018.3 |
| 20260506165426 | 17 | 319 | 3.2 | 12.9 | 0.00 | 0.00 | 0.00 | 23 | 1018.3 |
| 20260506164920 | 17 | 140 | 4.8 | 12.9 | 0.00 | 0.00 | 0.00 | 23 | 1018.3 |
| 20260506164414 | 18 | 319 | 3.2 | 11.3 | 0.00 | 0.00 | 0.00 | 22 | 1018.3 |
| 20260506163911 | 18 | 291 | 1.6 | 11.3 | 0.00 | 0.00 | 0.00 | 22 | 1018.3 |
| 20260506163403 | 18 | 284 | 3.2 | 9.7 | 0.00 | 0.00 | 0.00 | 22 | 1018.2 |
| 20260506162856 | 17 | 230 | 3.2 | 11.3 | 0.00 | 0.00 | 0.00 | 23 | 1018.2 |
| 20260506162350 | 17 | 328 | 3.2 | 11.3 | 0.00 | 0.00 | 0.00 | 23 | 1018.2 |
| 20260506161847 | 17 | 263 | 3.2 | 12.9 | 0.00 | 0.00 | 0.00 | 24 | 1018.2 |
| 20260506161338 | 17 | 273 | 4.8 | 12.9 | 0.00 | 0.00 | 0.00 | 23 | 1018.2 |
| 20260506160832 | 16 | 241 | 4.8 | 12.9 | 0.00 | 0.00 | 0.00 | 25 | 1018.2 |
| 20260506160325 | 16 | 207 | 4.8 | 12.9 | 0.00 | 0.00 | 0.00 | 25 | 1018.2 |
| 20260506155827 | 16 | 243 | 4.8 | 12.9 | 0.00 | 0.00 | 0.00 | 26 | 1018.1 |
| 20260506155314 | 16 | 292 | 4.8 | 12.9 | 0.00 | 0.00 | 0.00 | 27 | 1018.1 |
| 20260506154808 | 16 | 315 | 4.8 | 14.5 | 0.00 | 0.00 | 0.00 | 27 | 1018.1 |
| 20260506154302 | 16 | 274 | 4.8 | 16.1 | 0.00 | 0.00 | 0.00 | 27 | 1018.1 |
| 20260506153250 | 15 | 289 | 8.0 | 20.9 | 0.00 | 0.00 | 0.00 | 28 | 1018.1 |
| 20260506152744 | 15 | 214 | 8.0 | 20.9 | 0.00 | 0.00 | 0.00 | 28 | 1018.0 |
| 20260506152238 | 15 | 266 | 6.4 | 19.3 | 0.00 | 0.00 | 0.00 | 28 | 1018.0 |
| 20260506151732 | 15 | 263 | 4.8 | 19.3 | 0.00 | 0.00 | 0.00 | 28 | 1018.0 |
| 20260506151228 | 15 | 252 | 4.8 | 12.9 | 0.00 | 0.00 | 0.00 | 28 | 1018.0 |
| 20260506150219 | 15 | 301 | 3.2 | 11.3 | 0.00 | 0.00 | 0.00 | 29 | 1017.8 |
| 20260506145711 | 15 | 259 | 6.4 | 17.7 | 0.00 | 0.00 | 0.00 | 29 | 1017.8 |
| 20260506145202 | 15 | 136 | 8.0 | 17.7 | 0.00 | 0.00 | 0.00 | 30 | 1017.7 |
| 20260506143704 | 15 | 136 | 4.8 | 20.9 | 0.00 | 0.00 | 0.00 | 30 | 1017.5 |
| 20260506143203 | 14 | 226 | 6.4 | 20.9 | 0.00 | 0.00 | 0.00 | 31 | 1017.6 |
| 20260506142657 | 14 | 184 | 8.0 | 19.3 | 0.00 | 0.00 | 0.00 | 31 | 1017.5 |
| 20260506142158 | 14 | 248 | 6.4 | 19.3 | 0.00 | 0.00 | 0.00 | 31 | 1017.5 |
| 20260506141657 | 13 | 174 | 4.8 | 12.9 | 0.00 | 0.00 | 0.00 | 31 | 1017.5 |
| 20260506141158 | 13 | 224 | 8.0 | 22.5 | 0.00 | 0.00 | 0.00 | 32 | 1017.5 |
| 20260506140657 | 13 | 188 | 9.7 | 22.5 | 0.00 | 0.00 | 0.00 | 33 | 1017.3 |
| 20260506140203 | 13 | 142 | 8.0 | 17.7 | 0.00 | 0.00 | 0.00 | 33 | 1017.3 |
| 20260506135158 | 12 | 110 | 3.2 | 14.5 | 0.00 | 0.00 | 0.00 | 35 | 1017.0 |
| 20260506134157 | 11 | 189 | 3.2 | 8.0 | 0.00 | 0.00 | 0.00 | 36 | 1017.2 |
| 20260506133700 | 11 | 156 | 3.2 | 11.3 | 0.00 | 0.00 | 0.00 | 37 | 1017.0 |
| 20260506133152 | 11 | 192 | 6.4 | 11.3 | 0.00 | 0.00 | 0.00 | 38 | 1016.9 |
| 20260506132647 | 10 | 188 | 4.8 | 11.3 | 0.00 | 0.00 | 0.00 | 39 | 1016.8 |
| 20260506131637 | 10 | 162 | 3.2 | 9.7 | 0.00 | 0.00 | 0.00 | 39 | 1016.8 |
| 20260506130635 | 9 | 173 | 0.0 | 0.0 | 0.00 | 0.00 | 0.00 | 38 | 1016.7 |
| 20260506130135 | 9 | 167 | 0.0 | 6.4 | 0.00 | 0.00 | 0.00 | 38 | 1016.6 |
| 20260506125132 | 10 | 199 | 4.8 | 11.3 | 0.00 | 0.00 | 0.00 | 39 | 1016.4 |
| 20260506124131 | 10 | 105 | 4.8 | 14.5 | 0.00 | 0.00 | 0.00 | 38 | 1016.2 |
| 20260506123635 | 10 | 160 | 4.8 | 11.3 | 0.00 | 0.00 | 0.00 | 38 | 1016.1 |
| 20260506122633 | 10 | 182 | 3.2 | 9.7 | 0.00 | 0.00 | 0.00 | 36 | 1016.1 |
| 20260506122127 | 10 | 156 | 3.2 | 8.0 | 0.00 | 0.00 | 0.00 | 36 | 1016.1 |
| 20260506121628 | 10 | 204 | 4.8 | 9.7 | 0.00 | 0.00 | 0.00 | 35 | 1016.0 |
| 20260506121130 | 10 | 169 | 4.8 | 9.7 | 0.00 | 0.00 | 0.00 | 35 | 1016.1 |
| 20260506120630 | 11 | 148 | 4.8 | 14.5 | 0.00 | 0.00 | 0.00 | 35 | 1016.1 |
| 20260506115626 | 11 | 172 | 4.8 | 12.9 | 0.00 | 0.00 | 0.00 | 34 | 1016.1 |
| 20260506115131 | 11 | 159 | 6.4 | 14.5 | 0.00 | 0.00 | 0.00 | 34 | 1016.1 |
| 20260506114628 | 11 | 150 | 6.4 | 14.5 | 0.00 | 0.00 | 0.00 | 34 | 1016.1 |
| 20260506114130 | 11 | 200 | 4.8 | 12.9 | 0.00 | 0.00 | 0.00 | 34 | 1016.1 |
| 20260506113630 | 11 | 141 | 4.8 | 12.9 | 0.00 | 0.00 | 0.00 | 34 | 1016.1 |
| 20260506113131 | 11 | 157 | 3.2 | 12.9 | 0.00 | 0.00 | 0.00 | 34 | 1016.0 |
| 20260506112127 | 11 | 181 | 4.8 | 12.9 | 0.00 | 0.00 | 0.00 | 34 | 1015.9 |
| 20260506111628 | 11 | 111 | 3.2 | 12.9 | 0.00 | 0.00 | 0.00 | 33 | 1016.0 |
| 20260506111127 | 11 | 131 | 3.2 | 19.3 | 0.00 | 0.00 | 0.00 | 33 | 1015.9 |
| 20260506110627 | 11 | 165 | 4.8 | 19.3 | 0.00 | 0.00 | 0.00 | 33 | 1015.8 |
| 20260506110131 | 11 | 153 | 4.8 | 16.1 | 0.00 | 0.00 | 0.00 | 33 | 1015.8 |
| 20260506105627 | 11 | 115 | 3.2 | 11.3 | 0.00 | 0.00 | 0.00 | 33 | 1015.8 |
| 20260506105126 | 11 | 114 | 3.2 | 11.3 | 0.00 | 0.00 | 0.00 | 33 | 1015.8 |
| 20260506104634 | 11 | 158 | 1.6 | 4.8 | 0.00 | 0.00 | 0.00 | 33 | 1015.7 |
| 20260506104127 | 11 | 95 | 1.6 | 6.4 | 0.00 | 0.00 | 0.00 | 33 | 1015.7 |
| 20260506103626 | 11 | 49 | 1.6 | 6.4 | 0.00 | 0.00 | 0.00 | 33 | 1015.7 |
| 20260506103127 | 11 | 72 | 1.6 | 4.8 | 0.00 | 0.00 | 0.00 | 33 | 1015.7 |
| 20260506102123 | 11 | 126 | 1.6 | 11.3 | 0.00 | 0.00 | 0.00 | 33 | 1015.6 |
| 20260506101626 | 11 | 271 | 1.6 | 6.4 | 0.00 | 0.00 | 0.00 | 33 | 1015.6 |
| 20260506100619 | 11 | 238 | 1.6 | 8.0 | 0.00 | 0.00 | 0.00 | 33 | 1015.6 |
| 20260506095615 | 11 | 232 | 1.6 | 8.0 | 0.00 | 0.00 | 0.00 | 32 | 1015.6 |
| 20260506095113 | 11 | 61 | 1.6 | 12.9 | 0.00 | 0.00 | 0.00 | 32 | 1015.6 |
| 20260506094614 | 11 | 216 | 1.6 | 12.9 | 0.00 | 0.00 | 0.00 | 32 | 1015.6 |
| 20260506093612 | 11 | 210 | 3.2 | 12.9 | 0.00 | 0.00 | 0.00 | 32 | 1015.4 |
| 20260506093113 | 11 | 221 | 1.6 | 12.9 | 0.00 | 0.00 | 0.00 | 32 | 1015.3 |
| 20260506092615 | 11 | 270 | 1.6 | 9.7 | 0.00 | 0.00 | 0.00 | 32 | 1015.4 |
| 20260506092110 | 11 | 144 | 1.6 | 6.4 | 0.00 | 0.00 | 0.00 | 31 | 1015.3 |
| 20260506091612 | 11 | 266 | 3.2 | 9.7 | 0.00 | 0.00 | 0.00 | 31 | 1015.3 |
| 20260506091112 | 11 | 252 | 1.6 | 9.7 | 0.00 | 0.00 | 0.00 | 31 | 1015.4 |
| 20260506090608 | 11 | 230 | 1.6 | 12.9 | 0.00 | 0.00 | 0.00 | 31 | 1015.3 |
| 20260506090107 | 11 | 211 | 3.2 | 12.9 | 0.00 | 0.00 | 0.00 | 31 | 1015.3 |
| 20260506085606 | 11 | 277 | 1.6 | 11.3 | 0.00 | 0.00 | 0.00 | 31 | 1015.3 |
| 20260506085107 | 11 | 193 | 1.6 | 6.4 | 0.00 | 0.00 | 0.00 | 31 | 1015.3 |
| 20260506084109 | 11 | 98 | 1.6 | 6.4 | 0.00 | 0.00 | 0.00 | 31 | 1015.3 |
| 20260506083601 | 11 | 190 | 1.6 | 6.4 | 0.00 | 0.00 | 0.00 | 30 | 1015.2 |
| 20260506083055 | 11 | 198 | 1.6 | 8.0 | 0.00 | 0.00 | 0.00 | 31 | 1015.3 |
| 20260506082551 | 11 | 262 | 1.6 | 8.0 | 0.00 | 0.00 | 0.00 | 30 | 1015.3 |
| 20260506082050 | 11 | 252 | 1.6 | 8.0 | 0.00 | 0.00 | 0.00 | 31 | 1015.3 |
| 20260506081554 | 11 | 143 | 1.6 | 9.7 | 0.00 | 0.00 | 0.00 | 30 | 1015.3 |
| 20260506081047 | 11 | 259 | 1.6 | 9.7 | 0.00 | 0.00 | 0.00 | 30 | 1015.3 |
| 20260506080546 | 11 | 274 | 1.6 | 4.8 | 0.00 | 0.00 | 0.00 | 30 | 1015.4 |
| 20260506073047 | 11 | 221 | 1.6 | 11.3 | 0.00 | 0.00 | 0.00 | 29 | 1015.3 |
| 20260506072048 | 11 | 253 | 1.6 | 9.7 | 0.00 | 0.00 | 0.00 | 29 | 1015.3 |
| 20260506071548 | 11 | 288 | 1.6 | 9.7 | 0.00 | 0.00 | 0.00 | 29 | 1015.1 |
| 20260506070542 | 11 | 306 | 3.2 | 14.5 | 0.00 | 0.00 | 0.00 | 29 | 1015.1 |
| 20260506062458 | 12 | 90 | 1.6 | 16.1 | 0.00 | 0.00 | 0.00 | 28 | 1014.9 |
| 20260506061947 | 12 | 252 | 1.6 | 16.1 | 0.00 | 0.00 | 0.00 | 28 | 1014.9 |
| 20260506061442 | 12 | 161 | 3.2 | 11.3 | 0.00 | 0.00 | 0.00 | 28 | 1014.9 |
| 20260506060936 | 12 | 268 | 3.2 | 12.9 | 0.00 | 0.00 | 0.00 | 28 | 1014.9 |
| 20260506060429 | 12 | 250 | 1.6 | 12.9 | 0.00 | 0.00 | 0.00 | 28 | 1014.8 |
| 20260506051332 | 12 | 231 | 1.6 | 8.0 | 0.00 | 0.00 | 0.00 | 28 | 1014.5 |
| 20260506050823 | 12 | 176 | 3.2 | 9.7 | 0.00 | 0.00 | 0.00 | 28 | 1014.5 |
| 20260506050319 | 12 | 244 | 3.2 | 12.9 | 0.00 | 0.00 | 0.00 | 28 | 1014.5 |
| 20260506044759 | 12 | 208 | 3.2 | 11.3 | 0.00 | 0.00 | 0.00 | 29 | 1014.4 |